This is the latest recevied weather packets stored in our database for station/object HASTNG-WX. If no packets are shown the sender has not sent any weather packets the latest 10 day(s).
| Time | Temp. | Humidity | Pressure | Rain* | Wind** | Luminosity | Snow |
|---|---|---|---|---|---|---|---|
| 1778056246 | 4.44° C | 74% | 980.1 hPa | 0 mm | - | - | - |
| 1778055331 | 4.44° C | 74% | 980.1 hPa | 0 mm | - | - | - |
| 1778054463 | 4.44° C | 74% | 980.1 hPa | 0 mm | - | - | - |
| 1778053531 | 4.44° C | 74% | 980 hPa | 0 mm | - | - | - |
| 1778052650 | 5.56° C | 74% | 980.1 hPa | 0 mm | - | - | - |
| 1778051731 | 5.56° C | 74% | 980.1 hPa | 0 mm | - | - | - |
| 1778050856 | 5.56° C | 74% | 980.1 hPa | 0 mm | - | - | - |
| 1778049931 | 6.11° C | 71% | 980.2 hPa | 0 mm | - | - | - |
| 1778049049 | 6.11° C | 71% | 980.2 hPa | 0 mm | - | - | - |
| 1778048132 | 6.11° C | 71% | 980.2 hPa | 0 mm | - | - | - |
| 1778047267 | 6.11° C | 71% | 980.2 hPa | 0 mm | - | - | - |
| 1778046332 | 6.67° C | 71% | 980.6 hPa | 0 mm | - | - | - |
| 1778045447 | 6.67° C | 70% | 980.3 hPa | 0 mm | - | - | - |
| 1778044532 | 6.67° C | 70% | 980.3 hPa | 0 mm | - | - | - |
| 1778043664 | 6.67° C | 70% | 980.3 hPa | 0 mm | - | - | - |
| 1778042732 | 7.22° C | 65% | 981 hPa | 0 mm | - | - | - |
| 1778041847 | 7.22° C | 68% | 980.5 hPa | 0 mm | - | - | - |
| 1778040932 | 7.22° C | 68% | 980.5 hPa | 0 mm | - | - | - |
| 1778040066 | 6.67° C | 68% | 980.5 hPa | 0 mm | - | - | - |
| 1778039129 | 7.22° C | 60% | 980.3 hPa | 0 mm | - | - | - |
| 1778037331 | 7.78° C | 57% | 980.2 hPa | 0 mm | - | - | - |
| 1778036467 | 7.78° C | 57% | 980.2 hPa | 0 mm | - | - | - |
| 1778035531 | 7.78° C | 53% | 980.2 hPa | 0 mm | - | - | - |
| 1778034649 | 7.78° C | 51% | 980.3 hPa | 0 mm | - | - | - |
| 1778033731 | 8.33° C | 51% | 980.4 hPa | 0 mm | - | - | - |
* Rain latest hour (hover to see other rain measurements)
** Current wind speed in m/s (hover to see current wind gust speed)